Location: Goettingen
(51.5300°N, 9.9433°E)
Time: 07:27:37
(UTC+02:00)

ISS - Pass Details

Date: 13 May 2021
Orbit: 417 x 422 km, 51.6° (Epoch: 18 May)

Event Time Altitude Azimuth Distance (km) Brightness Sun altitude
Exits shadow 03:37:57 - 281° (W) 2,059 -0.5 -13.6°
Reaches altitude 10° 03:39:18 10° 279° (W) 1,505 -1.2 -13.4°
Maximum altitude 03:42:39 68° 197° (SSW) 458 -3.8 -13.1°
Drops below altitude 10° 03:46:01 10° 114° (ESE) 1,503 -0.8 -12.8°
Sets 03:48:07 0° 111° (ESE) 2,367 0.3 -12.6°
